Vertical_Velocity
-4 -15 -12 1 9 5 5 -5 -2 -3 -1 -3 -1 -2 0 3 -2 5 5 2 2 0 3 -3 -1 7 3 3 4 0 -0 0 7 -2 -5 -8 15 7 9 2 2 1 0
-10 3 5 -1 -2 7 0 -0 -8 2 -18 -4 -3 -2 -1 3 -1 3 8 -4 3 -1 2 -0 -3 -1 2 1 5 18 18 1 -1 0 0 -4 1 1 -2 -4 -1 -1 -5
1 -2 -3 -1 2 7 -3 1 16 20 17 -2 -2 -6 -4 0 -2 2 14 12 19 6 -1 -1 -1 -1 -2 1 6 13 3 1 7 6 2 2 -4 -1 -9 -6 -2 -2 1
13 16 -3 2 1 -7 14 5 23 58 11 -1 -5 1 0 -5 -2 -2 11 2 5 18 4 14 -2 -1 5 0 1 2 16 17 12 9 6 1 -2 2 -1 -1 -4 -5 -5
1 11 9 7 9 7 12 3 46 -9 4 -1 -4 -6 -3 -0 -10 -5 8 5 2 4 -0 2 -1 2 15 17 13 2 12 8 5 -3 -2 3 3 2 -0 -3 1 2 -2
3 5 -1 11 14 84 110 75 -5 3 -3 3 2 -1 -2 -0 -5 -3 -2 -1 2 3 2 3 7 2 -3 -2 -1 7 -1 -3 -3 1 -1 -4 -3 -1 -1 -1 2 1 2
9 5 2 8 4 -5 -10 -15 3 -0 -4 0 3 -3 -6 -5 -3 -5 -4 1 -8 -1 -3 7 17 7 6 -3 -1 -1 -0 -0 0 -2 1 -1 -0 -1 -2 -1 2 0 4
6 -3 -1 9 -10 2 -1 11 19 -5 2 6 1 -5 -8 -7 -5 -6 -6 -4 -3 -0 4 -5 -5 -3 2 -2 -0 -0 1 4 2 1 -2 -4 -1 -1 -1 -3 -1 2 3
-7 5 -1 -4 13 11 16 20 -5 -5 -5 6 -3 -7 -4 1 -4 -1 -5 1 -3 -2 2 -4 6 0 3 1 1 2 -1 1 0 -1 -1 -5 22 -1 -0 -1 -2 6 -2
-7 -4 -5 1 -12 8 3 -4 -7 -5 10 -4 -6 -1 -3 -4 -4 -3 -4 0 -6 -6 -4 1 -3 3 1 1 -0 0 2 0 -0 0 1 -2 -4 -2 -1 3 1 0 2
8 1 1 -9 -5 0 5 5 1 9 4 -10 2 -0 -4 1 -7 -7 1 -1 3 -4 -5 -4 2 -2 -1 -0 -1 -0 1 1 1 3 2 2 3 -1 2 -0 0 -1 0
2 -2 16 21 14 10 2 1 -4 -1 1 4 0 -2 2 -4 -2 3 1 -7 1 -0 -2 -2 -5 0 -1 2 3 1 2 -1 -1 5 0 3 -1 1 3 0 -1 2 3
-5 -7 8 -28 4 11 -1 -5 -1 1 -7 4 3 4 -9 1 -5 -4 -4 -2 -0 2 5 3 1 3 1 -1 3 -3 3 0 2 7 1 4 5 3 -4 -0 1 0 3
-10 7 6 -3 15 1 -2 -8 -3 -3 -2 7 4 -4 0 -3 -4 -1 -0 -4 -8 -7 -5 -5 -7 -6 1 5 2 6 2 1 2 1 2 -1 4 4 2 1 1 -8 4
7 10 8 -1 12 4 -1 -9 -4 -2 -2 -4 -0 -2 -5 -5 -5 -9 -6 -3 -2 0 -2 4 5 3 -1 -4 -0 -0 1 2 4 2 0 4 2 -1 1 -1 5 1 1
15 5 5 10 15 6 -0 3 3 -1 -2 -2 -5 -1 -5 5 1 -5 -1 -2 -6 -5 -4 2 0 -1 -3 -2 4 3 2 4 0 0 6 7 5 2 1 -3 -2 -0 -1
12 54 25 7 -3 -4 1 5 1 1 2 0 -0 2 -4 6 -3 -2 -5 -3 2 0 -6 -4 2 1 1 4 2 3 -1 -1 1 2 0 3 3 5 -3 3 3 -4 0
31 26 18 17 27 5 5 -2 -6 -4 0 2 -5 -2 -2 2 -6 0 -2 -7 -2 -5 -7 -6 -3 -5 -4 -6 -6 -1 2 4 4 1 0 2 3 5 7 4 4 5 5
7 9 22 10 -5 3 2 -1 0 1 3 -2 -6 3 -5 -1 -1 -4 -4 -2 -5 -4 -1 -4 -1 -2 -0 -1 -7 -2 -4 -1 -5 2 -1 3 -2 -1 -0 2 2 -0 2
-5 2 4 -2 -5 2 1 2 5 2 -3 1 1 -4 0 -3 -1 -2 -6 -5 -9 -7 -3 0 -10 -7 -5 0 -6 -4 -5 -7 -6 -2 -3 3 -0 1 -0 0 -1 -4 0
-12 2 1 3 5 3 2 -3 -4 -3 1 -2 3 5 -5 -5 1 -1 -2 -6 4 0 -3 0 1 -2 -3 -0 -7 -5 -2 -1 -0 2 3 1 0 1 1 -1 -1 2 -1
2 -4 1 0 -1 1 -1 -2 4 4 1 1 0 2 -4 -2 -5 -6 -4 -3 -2 -5 1 -7 1 2 0 -3 -5 -6 -5 -2 1 0 0 1 1 -0 -1 0 1 -0 -0
-2 1 2 3 1 1 4 -2 -0 -2 -2 -2 -3 -0 -2 -6 1 -1 -2 -5 -9 6 0 1 2 2 -1 -3 -2 0 -1 -1 -1 -1 -1 0 0 -0 1 1 1 0 0
-1 -2 -1 -1 -2 0 -7 -1 -4 -4 -0 -4 2 1 12 4 -9 -4 -1 -1 5 5 -2 1 -3 -1 -1 -3 -3 -1 -1 -1 -1 -1 -0 -0 -0 -0 -1 -1 -0 -1 0
-7 -0 3 -1 3 -4 -2 12 -4 -3 3 2 7 4 9 -3 -1 -8 6 -4 12 3 2 1 0 3 1 -1 -0 2 1 -0 1 2 1 1 1 -1 -2 -1 1 1 2
10 0 -11 -0 5 -2 -4 1 -7 -13 -5 -6 -5 -8 10 -6 4 1 2 -9 1 -1 2 1 1 1 1 2 1 1 3 0 0 1 0 -1 1 -1 -1 -2 1 2 2
Height
5893 5890 5889 5891 5888 5885 5883 5878 5873 5874 5875 5872 5870 5871 5871 5863 5860 5857 5857 5858 5863 5863 5863 5865 5866 5865 5865 5866 5865 5863 5863 5863 5863 5863 5864 5864 5866 5868 5870 5872 5875 5876 5875
5888 5884 5883 5880 5880 5878 5874 5872 5869 5867 5866 5866 5862 5858 5858 5855 5847 5844 5846 5846 5850 5850 5855 5855 5857 5857 5859 5858 5857 5855 5854 5856 5857 5858 5860 5859 5860 5861 5862 5864 5865 5866 5866
5881 5879 5877 5876 5873 5869 5866 5865 5860 5845 5850 5856 5851 5849 5849 5844 5837 5834 5832 5833 5833 5837 5844 5846 5848 5848 5848 5850 5849 5848 5846 5848 5849 5848 5852 5854 5853 5854 5856 5859 5860 5861 5860
5876 5874 5871 5868 5866 5861 5860 5856 5851 5838 5842 5846 5846 5842 5838 5835 5832 5826 5823 5822 5825 5826 5830 5834 5837 5839 5839 5840 5841 5840 5838 5839 5842 5842 5844 5845 5847 5850 5851 5852 5852 5851 5851
5861 5860 5857 5855 5853 5850 5848 5843 5839 5839 5837 5841 5841 5839 5834 5828 5824 5819 5820 5820 5819 5821 5822 5825 5827 5829 5830 5832 5832 5835 5834 5835 5836 5837 5837 5838 5840 5843 5845 5845 5845 5846 5845
5849 5845 5843 5838 5841 5831 5815 5827 5818 5833 5834 5836 5838 5838 5834 5829 5823 5819 5817 5813 5815 5815 5816 5818 5820 5821 5822 5823 5824 5826 5827 5828 5829 5831 5831 5828 5829 5831 5834 5835 5836 5838 5841
5835 5833 5831 5825 5822 5820 5811 5817 5822 5826 5828 5829 5830 5828 5826 5824 5820 5816 5812 5809 5807 5808 5808 5809 5810 5812 5816 5815 5816 5817 5818 5818 5820 5819 5820 5821 5819 5818 5821 5822 5825 5826 5826
5820 5820 5819 5815 5813 5806 5803 5812 5817 5818 5822 5821 5818 5818 5816 5815 5813 5810 5808 5805 5801 5799 5799 5801 5802 5802 5803 5806 5808 5807 5806 5807 5808 5809 5809 5807 5806 5804 5807 5808 5809 5810 5811
5806 5806 5805 5806 5804 5802 5804 5806 5806 5812 5813 5812 5811 5810 5807 5807 5807 5804 5801 5800 5799 5797 5797 5795 5793 5795 5796 5797 5798 5798 5798 5798 5797 5796 5796 5795 5794 5795 5794 5794 5794 5795 5797
5794 5793 5792 5794 5795 5795 5793 5797 5801 5804 5806 5803 5805 5804 5802 5800 5798 5797 5797 5794 5793 5793 5790 5788 5789 5789 5789 5788 5788 5788 5788 5788 5788 5788 5787 5784 5783 5781 5781 5782 5782 5781 5782
5783 5779 5773 5772 5777 5779 5780 5785 5792 5797 5796 5796 5796 5794 5793 5792 5791 5789 5790 5789 5787 5786 5784 5782 5781 5781 5780 5778 5777 5777 5777 5776 5776 5774 5773 5773 5772 5771 5770 5769 5768 5768 5768
5765 5761 5753 5753 5760 5766 5771 5776 5782 5785 5785 5784 5784 5785 5783 5784 5781 5778 5778 5779 5778 5778 5777 5774 5772 5771 5770 5769 5767 5766 5763 5762 5760 5759 5758 5757 5757 5756 5755 5755 5755 5756 5755
5748 5746 5740 5752 5753 5757 5764 5769 5772 5774 5775 5774 5774 5775 5776 5775 5772 5769 5769 5768 5766 5766 5765 5764 5762 5761 5759 5757 5755 5752 5751 5748 5747 5746 5745 5743 5741 5740 5738 5738 5738 5739 5740
5728 5735 5738 5743 5745 5751 5756 5761 5764 5764 5765 5766 5767 5767 5766 5766 5765 5764 5763 5761 5760 5758 5755 5752 5749 5746 5744 5741 5739 5738 5736 5733 5732 5730 5728 5726 5724 5723 5721 5721 5719 5718 5720
5716 5721 5726 5732 5737 5742 5749 5755 5755 5756 5758 5759 5759 5761 5759 5757 5755 5756 5754 5753 5751 5748 5744 5741 5739 5736 5733 5730 5726 5723 5719 5717 5714 5711 5709 5708 5706 5705 5703 5702 5702 5702 5701
5704 5711 5715 5722 5728 5733 5739 5745 5746 5748 5750 5752 5752 5751 5749 5745 5745 5745 5744 5743 5741 5737 5732 5730 5728 5724 5720 5714 5709 5705 5701 5697 5693 5691 5689 5688 5686 5685 5683 5681 5681 5680 5681
5692 5703 5711 5714 5720 5725 5731 5735 5738 5739 5742 5743 5742 5740 5738 5736 5735 5734 5733 5731 5727 5724 5721 5719 5716 5709 5704 5698 5693 5687 5682 5678 5673 5670 5667 5666 5666 5665 5665 5665 5664 5663 5663
5692 5697 5705 5709 5713 5720 5725 5726 5727 5729 5731 5732 5732 5729 5725 5724 5724 5723 5720 5716 5713 5711 5709 5704 5700 5695 5689 5681 5673 5665 5658 5653 5651 5649 5647 5646 5646 5646 5646 5646 5645 5645 5646
5690 5697 5699 5701 5709 5714 5716 5718 5720 5721 5721 5720 5718 5716 5714 5713 5712 5710 5708 5704 5701 5699 5694 5691 5686 5681 5674 5666 5660 5653 5648 5643 5638 5634 5630 5628 5628 5628 5628 5629 5628 5628 5628
5693 5697 5700 5702 5706 5708 5710 5712 5711 5711 5712 5711 5710 5708 5706 5705 5703 5700 5696 5692 5690 5687 5684 5680 5675 5670 5663 5657 5652 5646 5640 5634 5628 5622 5618 5615 5615 5614 5614 5614 5613 5613 5612
5694 5697 5699 5702 5705 5706 5706 5705 5705 5706 5704 5703 5701 5700 5697 5694 5691 5689 5685 5683 5681 5679 5674 5669 5665 5661 5657 5652 5646 5641 5636 5630 5624 5617 5611 5607 5604 5603 5602 5602 5602 5601 5600
5691 5693 5695 5696 5698 5698 5698 5698 5697 5695 5694 5693 5692 5691 5688 5686 5683 5680 5677 5674 5673 5669 5665 5661 5658 5654 5650 5646 5641 5636 5631 5626 5620 5615 5610 5605 5601 5598 5596 5595 5594 5593 5591
5688 5689 5691 5692 5691 5691 5692 5691 5690 5688 5687 5685 5684 5681 5680 5678 5674 5672 5669 5666 5665 5661 5659 5655 5652 5647 5643 5639 5635 5631 5626 5621 5616 5610 5605 5601 5597 5593 5590 5588 5585 5582 5579
5689 5688 5690 5689 5687 5686 5684 5683 5682 5681 5680 5678 5677 5674 5672 5672 5670 5667 5664 5660 5656 5653 5651 5649 5645 5642 5638 5633 5629 5624 5619 5613 5608 5603 5599 5595 5591 5588 5585 5581 5578 5574 5571
5684 5683 5683 5683 5682 5680 5680 5680 5678 5676 5675 5673 5670 5668 5666 5665 5661 5658 5657 5654 5650 5647 5645 5641 5637 5633 5629 5625 5621 5616 5611 5605 5600 5596 5591 5587 5583 5580 5577 5573 5569 5566 5562
5681 5682 5681 5679 5678 5677 5675 5674 5673 5672 5669 5667 5666 5662 5662 5658 5655 5652 5650 5647 5644 5641 5638 5634 5630 5625 5621 5616 5611 5607 5603 5597 5592 5588 5584 5579 5576 5571 5567 5563 5559 5557 5554